Miscellaneous Local Product
Issued by NWS North Platte, NE

Home | Current Version | Previous Version | Text Only | Print | Product List | Glossary On
Versions: 1 2 3 4 5 6 7 8 9 10 11 12 13 14 15 16 17 18 19 20 21 22 23 24 25 26 27 28 29 30 31 32 33 34 35 36 37 38 39 40 41 42 43 44 45 46 47 48 49 50
624
AXUS43 KLBF 101810
MISLBF


WESTERN AND NORTH CENTRAL NEBRASKA HOURLY WEATHER ROUNDUP
NATIONAL WEATHER SERVICE NORTH PLATTE NE
1200 PM CST SUN DEC 10 2017

NOTE: "FAIR" INDICATES FEW OR NO CLOUDS BELOW 12,000 FEET WITH NO
SIGNIFICANT WEATHER AND/OR OBSTRUCTIONS TO VISIBILITY.

NOTE: STATIONS NOT REPORTING VARIABLES SUCH AS SKY/WEATHER OR
PRESSURE ARE PROVIDED BY RAWS AND APRS NETWORKS AND ARE NOT UNDER
NATIONAL WEATHER SERVICE QUALITY CONTROL.

...OBSERVATIONS IN AND NEAR THE EASTERN PANHANDLE OF NEBRASKA...

CITY           SKY/WX    TMP DP  RH WIND       PRES   REMARKS
PINE RIDGE     SUNNY     48  17  29 W13G21    30.27F
GORDON         FAIR      49  17  27 W18       30.25S
CHADRON        SUNNY     54  11  18 W16G23    30.29F
ALLIANCE       SUNNY     58   7  13 NW15G25   30.29F
SIDNEY         SUNNY     57   4  12 NW20G28   30.36S
CRESCENT LAKE    N/A     56   8  14 W15G26      N/A
$$

...OBSERVATIONS IN NORTHERN NEBRASKA AND FAR SOUTHERN SOUTH DAKOTA...

CITY           SKY/WX    TMP DP  RH WIND       PRES   REMARKS
WINNER         FAIR      54  17  23 NW23G31   30.13F
VALENTINE      SUNNY     57  13  17 NW16G26   30.19F
THEDFORD       CLOUDY    59  15  18 NW17G23   30.22S
AINSWORTH      SUNNY     55  15  21 NW24G31   30.17F
O`NEILL        SUNNY     52  20  28 NW16G22   30.14F
ORD            SUNNY     57  12  17 NW20      30.16F
BROKEN BOW     SUNNY     59  12  15 NW21G30   30.19S
VALENTINE NWR    N/A     54  11  18 NW13G23     N/A
HALSEY           N/A     53  12  19 NW12G18     N/A
BUTTE            N/A     49  20  32 W16         N/A
CHAMBERS         N/A     53  19  26 NW6G14      N/A
EWING            N/A     52  22  30 NW13G21     N/A
$$

...OBSERVATIONS IN SOUTHWEST NEBRASKA AND FAR NORTHEAST COLORADO...

CITY           SKY/WX    TMP DP  RH WIND       PRES   REMARKS
WRAY           FAIR      61   3  10 NW20      30.37S
HOLYOKE        FAIR      59   5  11 NW14G26   30.34F
IMPERIAL       SUNNY     58   6  12 NW21G29   30.32F
OGALLALA       SUNNY     57   9  14 W22G28    30.31S
NORTH PLATTE   SUNNY     54  16  22 W16       30.25F
MCCOOK         SUNNY     57  13  17 W18       30.28F
LEXINGTON      SUNNY     56  13  18 W18       30.24S
STAPLETON        N/A     61  12  14 N6          N/A
GOTHENBURG       N/A     54  13  19 W8          N/A
CALLAWAY         N/A     62  14  15 NW17        N/A
$$

...OBSERVATIONS IN CENTRAL LINCOLN COUNTY AREA...

CITY           SKY/WX    TMP DP  RH WIND       PRES   REMARKS
N.P. AIRPORT   SUNNY     54  16  22 W16       30.25F
N.P. DOWNTOWN    N/A     53  20  27 W3          N/A
N.P. SOUTHEAST   N/A     53  18  25 W7          N/A
N.P. HILLCREST   N/A     54  22  28 W12         N/A
$$

...SOME OBSERVATIONS FROM AROUND THE REGION...

CITY           SKY/WX    TMP DP  RH WIND       PRES   REMARKS
DENVER         SUNNY     54  -5   8 W10       30.41S
GRAND JUNCTION SUNNY     38   8  29 SE7       30.60F WCI  33
LARAMIE        SUNNY     41  10  28 N7        30.45S
CHEYENNE       SUNNY     51  -3  10 W14       30.41F
CASPER         CLOUDY    36  15  42 SW21G29   30.42S WCI  25
BISMARCK       CLOUDY    44  25  47 W9        30.06F
RAPID CITY     SUNNY     62   5  10 NW18      30.20F
PIERRE         SUNNY     51  18  27 NW21      30.10F
SIOUX FALLS    MOSUNNY   39  29  67 NW13      30.07S WCI  31
OMAHA          MOSUNNY   49  26  41 NW15      30.10S
GRAND ISLAND   SUNNY     58  16  19 NW20G30   30.17F
SCOTTSBLUFF    SUNNY     51  11  20 NW13      30.35F
KANSAS CITY    MOSUNNY   52  25  35 NW12      30.11F
HILL CITY      SUNNY     60  13  15 NW12      30.29F
WICHITA        MOSUNNY   59  16  18 NW20      30.24F
DODGE CITY     SUNNY     60  11  14 NW16      30.34F
OKLAHOMA CITY  SUNNY     60  14  16 NW10      30.31F
DALLAS         MOSUNNY   64  24  21 SW9       30.35F
AMARILLO       SUNNY     62   7  11 N8        30.43F
$$




USA.gov is the U.S. government's official web portal to all federal, state and local government web resources and services.